Home   Weather   San Juan   Past weeks

Flag for Puerto Rico Past Weather in San Juan, Puerto Rico — Yesterday and Last 2 Weeks

Now
80 °F

Scattered clouds.


Feels Like: 83 °F
Forecast: N/A
Wind: 15 mph from Northeast

Location: Luis Munoz Marin

Current Time: Jan 17, 2017 at 5:33:59 pm

Latest Report: Jan 17, 2017 at 4:56 pm


Visibility: 10 mi

Pressure: 30.05 "Hg

Humidity: 67%

Dew Point: 68 °F

Location of San JuanLocation

Past Weather in San Juan — Graph

°F

San Juan Temperature Yesterday

Maximum temperature yesterday: 83 °F (at 12:56 pm)
Minimum temperature yesterday: 73 °F (at 2:56 am)
Average temperature yesterday: 78 °F

High & Low Weather Summary for the Past Weeks

 TemperatureHumidityPressure
High87 °F (Jan 5, 2:56 pm)100% (Jan 4, 2:56 am)30.13 "Hg (Jan 4, 2:56 am)
Low72 °F (Jan 4, 5:56 am)49% (Jan 12, 12:56 pm)29.91 "Hg (Jan 4, 2:56 pm)
Average78 °F75%30.03 "Hg
* Reported Jan 2 3:56 pm — Jan 17 3:56 pm, San Juan, Weather by CustomWeather, © 2017

Note: Actual official high and low records may vary slightly from our data, if they occured in-between our weather recording intervals... More about our weather records

Advertising

San Juan Weather History for the Previous 24 Hours

Scroll right to see more
 ConditionsComfort  
Time TempWeatherWind HumidityBarometerVisibility
3:56 pm
Tue, Jan 17
81 °FScattered clouds.14 mph65%30.03 "Hg10 mi
2:56 pm83 °FScattered clouds.16 mph55%30.04 "Hg10 mi
1:56 pm83 °FScattered clouds.14 mph59%30.05 "Hg10 mi
12:56 pm83 °FPassing clouds.15 mph57%30.06 "Hg10 mi
11:56 am82 °FScattered clouds.15 mph63%30.09 "Hg10 mi
10:56 am82 °FScattered clouds.20 mph63%30.11 "Hg10 mi
9:56 am80 °FPassing clouds.14 mph67%30.12 "Hg10 mi
8:56 am75 °FScattered clouds.3 mph82%30.11 "Hg10 mi
7:56 am72 °FPartly cloudy.9 mph93%30.09 "Hg10 mi
6:56 am73 °FPartly cloudy.9 mph90%30.07 "Hg10 mi
5:56 am73 °FLight rain. Partly cloudy.7 mph90%30.05 "Hg9 mi
4:56 am77 °FPassing clouds.12 mph71%30.04 "Hg10 mi
3:56 am78 °FPassing clouds.16 mph64%30.03 "Hg10 mi
2:56 am77 °FPassing clouds.18 mph71%30.04 "Hg10 mi
1:56 am78 °FPartly cloudy.20 mph69%30.06 "Hg10 mi
12:56 am78 °FPassing clouds.15 mph71%30.07 "Hg10 mi
11:56 pm
Mon, Jan 16
77 °FPartly cloudy.12 mph79%30.08 "Hg10 mi
10:56 pm77 °FPassing clouds.14 mph82%30.09 "Hg10 mi
9:56 pm75 °FPassing clouds.9 mph85%30.09 "Hg10 mi
8:56 pm78 °FPassing clouds.12 mph71%30.09 "Hg10 mi
7:56 pm78 °FPassing clouds.10 mph64%30.08 "Hg10 mi
6:56 pm78 °FScattered clouds.13 mph66%30.06 "Hg10 mi
5:56 pm79 °FScattered clouds.16 mph62%30.04 "Hg10 mi
Weather by CustomWeather, © 2017

See weather overviewHow to use our weather pages